Flag for Germany Weather past 2 weeks in Lutherstadt Eisleben, Saxony-Anhalt, Germany

Now
75 °F

Partly sunny.


Feels Like: 78 °F
Forecast: 54 / 78 °F
Wind: 2 mph from North

Location: Leipzig-Schkeuditz

Current Time: Jul 31, 2014 at 6:14:45 PM

Latest Report: Jul 31, 2014 at 5:00 PM


Visibility: 38 mi

Pressure: 29.95 "Hg

Humidity: 43%

Dew point: 51 °F

Location of Lutherstadt EislebenLocation

Historic Weather in Lutherstadt Eisleben — Graph

°F

Lutherstadt Eisleben temperature yesterday

Maximum temperature yesterday: 71 °F (at 5:00 PM)
Minimum temperature yesterday: 65 °F (at 9:00 PM)
Average temperature yesterday: 67 °F

Past Weeks' High & Low Weather Summary

 TemperatureHumidityPressure
High93 °F (Jul 20, 5:00 PM)99% (Jul 26, 5:00 AM)30.19 "Hg (Jul 26, 5:00 AM)
Low58 °F (Jul 24, 5:00 AM)20% (Jul 19, 3:00 PM)29.71 "Hg (Jul 30, 3:00 AM)
Average71 °F69%29.93 "Hg
* Reported Jul 16 5:00 PM — Jul 31 5:00 PM, Lutherstadt Eisleben, Weather by CustomWeather, © 2014

Note: Actual official high and low records may vary slightly from our data, if they occured in-between our weather recording intervals... More about our weather records

Advertising

Lutherstadt Eisleben weather history for previous 24 hours

 ConditionsComfort  
Time TempWeatherWind HumidityBarometerVisibility
5:00 PM
Jul 31
75 °FPartly sunny.2 mph43%29.95 "Hg37 mi
4:00 PM75 °FPartly sunny.3 mph44%29.96 "Hg37 mi
3:00 PM73 °FPartly sunny.3 mph49%29.96 "Hg31 mi
2:00 PM72 °FPartly sunny.2 mph52%29.97 "Hg31 mi
1:00 PM70 °FPartly sunny.2 mph57%29.98 "Hg31 mi
12:00 PM69 °FPartly sunny.3 mph61%29.99 "Hg31 mi
11:00 AM68 °FPartly sunny.3 mph65%29.98 "Hg31 mi
10:00 AM67 °FPartly sunny.3 mph71%29.98 "Hg31 mi
9:00 AM64 °FScattered clouds.3 mph79%29.98 "Hg31 mi
8:00 AM62 °FScattered clouds.2 mph85%29.99 "Hg31 mi
7:00 AM59 °FScattered clouds.1 mph89%29.97 "Hg28 mi
6:00 AM59 °FPassing clouds.2 mph87%29.95 "Hg22 mi
5:00 AM60 °FPassing clouds.2 mph85%29.94 "Hg25 mi
4:00 AM63 °FPassing clouds.2 mph81%29.92 "Hg28 mi
3:00 AM64 °FOvercast.2 mph80%29.91 "Hg25 mi
2:00 AM65 °FOvercast.2 mph83%29.91 "Hg19 mi
1:00 AM66 °FOvercast.2 mph88%29.89 "Hg16 mi
12:00 AM66 °FOvercast.3 mph82%29.88 "Hg16 mi
10:00 PM
Jul 30
67 °FDrizzle. Low clouds.3 mph88%29.87 "Hg11 mi
9:00 PM65 °FOvercast.2 mph88%29.85 "Hg9 mi
8:00 PM68 °FOvercast.5 mph85%29.83 "Hg11 mi
7:00 PM69 °FOvercast.5 mph84%29.81 "Hg12 mi
6:00 PM69 °FOvercast.6 mph82%29.81 "Hg12 mi
Weather by CustomWeather, © 2014

See weather overviewHow to use our weather pages